Regional Weather Roundup
Issued by NWS

Home | Current Version | Previous Version | Graphics & Text | Print | Product List | Glossary On
Versions: 1 2 3 4 5 6 7 8 9 10 11 12 13 14 15 16 17 18 19 20 21 22 23 24 25 26 27 28 29 30 31 32 33 34 35 36 37 38 39 40 41 42 43 44 45 46 47 48 49 50
202
ASUS43 KFSD 211302
RWRSD

WEATHER ROUNDUP FOR SOUTH DAKOTA
NATIONAL WEATHER SERVICE SIOUX FALLS SD
800 AM CDT THU SEP 21 2017

NOTE: "FAIR" INDICATES FEW OR NO CLOUDS BELOW 12,000 FEET WITH NO
SIGNIFICANT WEATHER AND/OR OBSTRUCTIONS TO VISIBILITY.


SDZ001>005-009-010-012>017-211400-
NORTHWEST AND NORTH CENTRAL SOUTH DAKOTA

CITY           SKY/WX    TMP DP  RH WIND       PRES   REMARKS
BUFFALO          N/A     58  39  49 N6        29.60R
FAITH            N/A     53  40  61 SE14      29.67R
MOBRIDGE       CLEAR     61  48  62 S20       29.69S
$$

SDZ012>016-024>037-041>051-057-063-072>074-211400-
SOUTHWEST AND SOUTH CENTRAL SOUTH DAKOTA

CITY           SKY/WX    TMP DP  RH WIND       PRES   REMARKS
RAPID CTY ARPT CLEAR     54  37  54 S12       29.66S
PIERRE         CLEAR     56  46  69 SE12      29.74S
CUSTER         CLEAR     51  32  48 VRB3      29.75R
ELLSWORTH AFB  CLEAR     56  37  48 S9        29.64R
PHILIP         CLEAR     57  44  62 E3        29.69S
PINE RIDGE     CLEAR     61  50  67 S29G39    29.68F
SPEARFISH      FAIR      48  37  66 W9        29.66S
WINNER         FAIR      56  48  74 SE14      29.78S
$$

SDZ004>011-016>023-039-040-211400-
NORTHEAST SOUTH DAKOTA

CITY           SKY/WX    TMP DP  RH WIND       PRES   REMARKS
ABERDEEN       CLEAR     51  48  89 S8        29.81F
WATERTOWN      CLEAR     53  47  79 SE10      29.87R
BROOKINGS      CLEAR     54  48  80 SE13      29.89F
SISSETON         N/A     48  46  93 S8        29.86F
$$

SDZ017-020-022-023-036>040-048>070-211400-
SOUTHEAST SOUTH DAKOTA

CITY           SKY/WX    TMP DP  RH WIND       PRES   REMARKS
SIOUX FALLS    CLEAR     58  52  80 SE13G21   29.88F
HURON          CLEAR     51  46  83 SE12      29.83F
CHAMBERLAIN    CLEAR     58  49  73 SE12G18   29.79S
MITCHELL       CLEAR     53  48  83 SE7       29.85F
YANKTON        PTCLDY    52  49  89 E3        29.86F
$$

ABBREVIATIONS USED IN REMARKS
   TC - TEMPERATURE IN CELSIUS
  WCI - WIND CHILL INDEX
   HX - HEAT INDEX
  VSB - VISIBILITY





USA.gov is the U.S. government's official web portal to all federal, state and local government web resources and services.